Location: Unspecified
(35.3830°S, 0.0000°E)
Time: 16:27:14
(UTC+00:00)

Envisat - Visible Passes

Search period start: 19 May 2019 00:00
Search period end: 29 May 2019 00:00
Orbit: 764 x 766 km, 98.2° (Epoch: 19 May)

Date Brightness Start Highest point End Pass type
(mag) Time Alt. Az. Time Alt. Az. Time Alt. Az.
19 May 5.7 05:16:29 10° E 05:19:25 16° ESE 05:22:22 10° SSE visible
19 May 3.7 19:11:46 40° NNE 19:11:46 40° NNE 19:15:06 10° N visible
20 May 3.6 06:16:10 10° NNE 06:21:11 62° ESE 06:26:17 10° S visible
20 May 4.2 18:34:37 24° ENE 18:34:37 24° ENE 18:37:28 10° NNE visible
20 May 5.4 20:14:49 19° WNW 20:14:49 19° WNW 20:16:28 10° NW visible
21 May 5.1 05:40:25 10° NE 05:44:40 27° ESE 05:48:57 10° SSE visible
21 May 5.0 17:57:27 10° ENE 17:57:27 10° ENE 17:57:38 10° ENE visible
21 May 4.2 19:37:40 35° NNW 19:37:40 35° NNW 19:40:36 10° NNW visible
22 May 5.9 05:06:25 10° E 05:08:20 12° ESE 05:10:16 10° SE visible
22 May 3.8 19:00:30 36° NNE 19:00:30 36° NNE 19:03:44 10° N visible
23 May 4.1 06:05:07 10° NE 06:10:00 48° ESE 06:14:57 10° S visible
23 May 4.5 18:23:20 19° ENE 18:23:20 19° ENE 18:25:43 10° NE visible
23 May 5.1 20:03:32 23° WNW 20:03:32 23° WNW 20:05:37 10° NW visible
24 May 5.4 05:29:44 10° ENE 05:33:32 22° ESE 05:37:22 10° SSE visible
24 May 4.0 19:26:22 38° NNW 19:26:22 38° NNW 19:29:26 10° NNW visible
25 May 4.0 18:49:11 30° NE 18:49:11 30° NE 18:52:16 10° NNE visible
25 May 5.8 20:29:23 13° WNW 20:29:23 13° WNW 20:30:03 10° WNW visible
26 May 4.5 05:54:10 10° NE 05:58:50 38° ESE 06:03:34 10° S visible
26 May 4.7 18:12:00 15° ENE 18:12:00 15° ENE 18:13:44 10° NE visible
26 May 4.7 19:52:13 27° NW 19:52:13 27° NW 19:54:39 10° NW visible
27 May 5.7 05:19:12 10° ENE 05:22:26 17° ESE 05:25:40 10° SSE visible
27 May 3.8 19:15:02 39° N 19:15:02 39° N 19:18:11 10° N visible
28 May 3.4 06:19:11 10° NNE 06:24:14 69° ESE 06:29:22 10° S visible
28 May 4.2 18:37:50 25° NE 18:37:50 25° NE 18:40:42 10° NNE visible
28 May 5.5 20:18:02 16° WNW 20:18:02 16° WNW 20:19:21 10° NW visible
